LVFPM SABE-SAAR

Flight info

Callsign LVFPM
Flight time 0h 58m
Altitude 6000
Route ATOVO4B ATOVO W5 ESKON
Aircraft BE58/L-SDFGRY/C

Departure

Time 2026-04-26 22:43
Airport Aeroparque Jorge Newbery (SABE)

Arrival

Time 2026-04-26 23:41
Airport Rosario Islas Malvinas International Airport (SAAR)
Time Latitude Longitude Altitude Speed Heading
2026-04-26 22:21 -34.56447 -58.40963 22 ft 0 kts 213°
2026-04-26 22:38 -34.56451 -58.40966 22 ft 1 kts 214°
2026-04-26 22:38 -34.56472 -58.40974 22 ft 4 kts 166°
2026-04-26 22:38 -34.56505 -58.40922 22 ft 10 kts 123°
2026-04-26 22:38 -34.56500 -58.40845 22 ft 11 kts 62°
2026-04-26 22:39 -34.56472 -58.40773 22 ft 0 kts 64°
2026-04-26 22:41 -34.56464 -58.40752 22 ft 7 kts 65°
2026-04-26 22:41 -34.56428 -58.40702 22 ft 9 kts 355°
2026-04-26 22:41 -34.56387 -58.40743 22 ft 0 kts 302°
2026-04-26 22:42 -34.56386 -58.40744 22 ft 1 kts 299°
2026-04-26 22:42 -34.56309 -58.40890 22 ft 47 kts 300°
2026-04-26 22:42 -34.55960 -58.41462 55 ft 103 kts 295°
2026-04-26 22:43 -34.55474 -58.42234 302 ft 119 kts 293°
2026-04-26 22:43 -34.54998 -58.43105 715 ft 127 kts 293°
2026-04-26 22:43 -34.54359 -58.43879 1215 ft 140 kts 323°
2026-04-26 22:43 -34.53342 -58.43911 1656 ft 162 kts
2026-04-26 22:44 -34.52340 -58.43161 2038 ft 173 kts 32°
2026-04-26 22:44 -34.51381 -58.42264 2425 ft 175 kts 32°
2026-04-26 22:44 -34.50409 -58.41352 2808 ft 176 kts 31°
2026-04-26 22:44 -34.49325 -58.40871 3158 ft 159 kts 346°
2026-04-26 22:45 -34.48369 -58.41229 3512 ft 134 kts 309°
2026-04-26 22:45 -34.47691 -58.41928 3880 ft 125 kts 297°
2026-04-26 22:45 -34.47119 -58.42708 4246 ft 123 kts 295°
2026-04-26 22:45 -34.46570 -58.43515 4601 ft 120 kts 287°
2026-04-26 22:46 -34.46126 -58.44360 4942 ft 120 kts 287°
2026-04-26 22:46 -34.45660 -58.45233 5222 ft 126 kts 288°
2026-04-26 22:46 -34.45168 -58.46130 5517 ft 129 kts 288°
2026-04-26 22:46 -34.44664 -58.47036 5816 ft 131 kts 288°
2026-04-26 22:47 -34.44147 -58.47963 6035 ft 138 kts 288°
2026-04-26 22:47 -34.43574 -58.49000 5980 ft 157 kts 290°
2026-04-26 22:47 -34.42936 -58.50135 5975 ft 167 kts 291°
2026-04-26 22:47 -34.42262 -58.51327 5974 ft 173 kts 292°
2026-04-26 22:48 -34.41567 -58.52557 5971 ft 177 kts 292°
2026-04-26 22:48 -34.40868 -58.53796 5971 ft 179 kts 292°
2026-04-26 22:48 -34.40157 -58.55058 5970 ft 181 kts 292°
2026-04-26 22:48 -34.39444 -58.56322 5969 ft 182 kts 292°
2026-04-26 22:49 -34.38729 -58.57591 5965 ft 182 kts 292°
2026-04-26 22:49 -34.38020 -58.58849 5967 ft 182 kts 292°
2026-04-26 22:49 -34.37307 -58.60115 5970 ft 182 kts 292°
2026-04-26 22:49 -34.36592 -58.61383 5972 ft 182 kts 293°
2026-04-26 22:50 -34.35871 -58.62659 5973 ft 183 kts 292°
2026-04-26 22:50 -34.35149 -58.63941 5973 ft 183 kts 293°
2026-04-26 22:50 -34.34437 -58.65202 5972 ft 183 kts 293°
2026-04-26 22:50 -34.33714 -58.66483 5976 ft 184 kts 293°
2026-04-26 22:51 -34.32989 -58.67766 5978 ft 185 kts 293°
2026-04-26 22:51 -34.32262 -58.69053 5978 ft 185 kts 293°
2026-04-26 22:51 -34.31531 -58.70347 5976 ft 185 kts 293°
2026-04-26 22:51 -34.30805 -58.71631 5986 ft 185 kts 292°
2026-04-26 22:52 -34.30075 -58.72928 5988 ft 185 kts 292°
2026-04-26 22:52 -34.29350 -58.74210 5995 ft 186 kts 292°
2026-04-26 22:52 -34.28612 -58.75515 6002 ft 187 kts 292°
2026-04-26 22:52 -34.27885 -58.76799 5999 ft 187 kts 292°
2026-04-26 22:53 -34.27147 -58.78102 5998 ft 187 kts 292°
2026-04-26 22:53 -34.26412 -58.79400 6002 ft 188 kts 293°
2026-04-26 22:53 -34.25669 -58.80710 5994 ft 188 kts 292°
2026-04-26 22:53 -34.24927 -58.82018 6000 ft 188 kts 292°
2026-04-26 22:54 -34.24184 -58.83329 6003 ft 189 kts 293°
2026-04-26 22:54 -34.23439 -58.84640 6009 ft 188 kts 293°
2026-04-26 22:54 -34.22704 -58.85932 6013 ft 188 kts 293°
2026-04-26 22:54 -34.21960 -58.87239 6012 ft 189 kts 293°
2026-04-26 22:55 -34.21213 -58.88550 6008 ft 189 kts 293°
2026-04-26 22:55 -34.20476 -58.89845 6007 ft 189 kts 293°
2026-04-26 22:55 -34.19731 -58.91155 6010 ft 188 kts 293°
2026-04-26 22:55 -34.18985 -58.92467 6012 ft 188 kts 293°
2026-04-26 22:56 -34.18253 -58.93753 6015 ft 188 kts 293°
2026-04-26 22:56 -34.17507 -58.95063 6015 ft 188 kts 292°
2026-04-26 22:56 -34.16760 -58.96374 6008 ft 188 kts 292°
2026-04-26 22:56 -34.16026 -58.97664 6009 ft 188 kts 292°
2026-04-26 22:57 -34.15282 -58.98971 6017 ft 188 kts 292°
2026-04-26 22:57 -34.14542 -59.00268 6017 ft 188 kts 292°
2026-04-26 22:57 -34.13791 -59.01585 6021 ft 188 kts 292°
2026-04-26 22:57 -34.13053 -59.02880 6020 ft 189 kts 292°
2026-04-26 22:58 -34.12310 -59.04183 6026 ft 189 kts 293°
2026-04-26 22:58 -34.11565 -59.05489 6024 ft 189 kts 293°
2026-04-26 22:58 -34.10811 -59.06809 6022 ft 190 kts 293°
2026-04-26 22:58 -34.10061 -59.08122 6020 ft 190 kts 293°
2026-04-26 22:59 -34.09316 -59.09425 6021 ft 190 kts 293°
2026-04-26 22:59 -34.08565 -59.10739 6021 ft 190 kts 293°
2026-04-26 22:59 -34.07819 -59.12042 6025 ft 189 kts 293°
2026-04-26 22:59 -34.07062 -59.13366 6024 ft 189 kts 293°
2026-04-26 23:00 -34.06316 -59.14671 6021 ft 189 kts 293°
2026-04-26 23:00 -34.05493 -59.15934 6025 ft 192 kts 298°
2026-04-26 23:00 -34.04634 -59.17173 6027 ft 192 kts 298°
2026-04-26 23:00 -34.03775 -59.18409 6023 ft 192 kts 298°
2026-04-26 23:01 -34.02915 -59.19648 6019 ft 193 kts 298°
2026-04-26 23:01 -34.02063 -59.20875 6017 ft 192 kts 298°
2026-04-26 23:01 -34.01199 -59.22121 6020 ft 192 kts 298°
2026-04-26 23:01 -34.00339 -59.23360 6024 ft 192 kts 298°
2026-04-26 23:02 -33.99484 -59.24593 6024 ft 192 kts 298°
2026-04-26 23:02 -33.98621 -59.25836 6027 ft 192 kts 298°
2026-04-26 23:02 -33.97765 -59.27070 6029 ft 193 kts 298°
2026-04-26 23:02 -33.96900 -59.28315 6034 ft 193 kts 298°
2026-04-26 23:03 -33.96033 -59.29563 6036 ft 193 kts 298°
2026-04-26 23:03 -33.95172 -59.30801 6031 ft 194 kts 298°
2026-04-26 23:03 -33.94301 -59.32054 6033 ft 194 kts 298°
2026-04-26 23:03 -33.93440 -59.33291 6035 ft 194 kts 298°
2026-04-26 23:04 -33.92572 -59.34539 6038 ft 194 kts 298°
2026-04-26 23:04 -33.91708 -59.35780 6043 ft 194 kts 298°
2026-04-26 23:04 -33.90839 -59.37029 6040 ft 194 kts 298°
2026-04-26 23:04 -33.89965 -59.38283 6036 ft 194 kts 299°
2026-04-26 23:05 -33.89099 -59.39526 6029 ft 194 kts 299°
2026-04-26 23:05 -33.88237 -59.40763 6030 ft 193 kts 298°
2026-04-26 23:05 -33.87378 -59.41994 6030 ft 193 kts 298°
2026-04-26 23:05 -33.86510 -59.43239 6031 ft 192 kts 298°
2026-04-26 23:06 -33.85655 -59.44464 6031 ft 192 kts 298°
2026-04-26 23:06 -33.84795 -59.45697 6034 ft 192 kts 298°
2026-04-26 23:06 -33.83939 -59.46922 6035 ft 192 kts 298°
2026-04-26 23:06 -33.83071 -59.48166 6037 ft 193 kts 298°
2026-04-26 23:07 -33.82211 -59.49397 6032 ft 193 kts 299°
2026-04-26 23:07 -33.81638 -59.50218 6035 ft 193 kts 298°
2026-04-26 23:07 -33.80477 -59.51876 6033 ft 193 kts 298°
2026-04-26 23:07 -33.79618 -59.53105 6033 ft 193 kts 298°
2026-04-26 23:08 -33.78751 -59.54343 6034 ft 193 kts 298°
2026-04-26 23:08 -33.77884 -59.55582 6038 ft 193 kts 298°
2026-04-26 23:08 -33.77025 -59.56810 6038 ft 192 kts 298°
2026-04-26 23:08 -33.76155 -59.58052 6035 ft 193 kts 298°
2026-04-26 23:09 -33.75299 -59.59273 6036 ft 193 kts 298°
2026-04-26 23:09 -33.74433 -59.60509 6038 ft 192 kts 298°
2026-04-26 23:09 -33.73567 -59.61745 6039 ft 193 kts 298°
2026-04-26 23:09 -33.72709 -59.62969 6039 ft 193 kts 298°
2026-04-26 23:10 -33.71837 -59.64212 6041 ft 193 kts 298°
2026-04-26 23:10 -33.70971 -59.65445 6047 ft 193 kts 299°
2026-04-26 23:10 -33.70108 -59.66675 6047 ft 194 kts 299°
2026-04-26 23:10 -33.69230 -59.67923 6046 ft 194 kts 299°
2026-04-26 23:11 -33.68351 -59.69172 6048 ft 195 kts 299°
2026-04-26 23:11 -33.67485 -59.70402 6050 ft 195 kts 299°
2026-04-26 23:11 -33.66607 -59.71649 6048 ft 195 kts 299°
2026-04-26 23:11 -33.65723 -59.72901 6051 ft 195 kts 299°
2026-04-26 23:12 -33.64841 -59.74154 6054 ft 196 kts 299°
2026-04-26 23:12 -33.63961 -59.75401 6057 ft 196 kts 300°
2026-04-26 23:12 -33.63080 -59.76650 6054 ft 196 kts 299°
2026-04-26 23:12 -33.62196 -59.77903 6054 ft 196 kts 299°
2026-04-26 23:13 -33.61322 -59.79141 6055 ft 195 kts 299°
2026-04-26 23:13 -33.60439 -59.80391 6057 ft 195 kts 299°
2026-04-26 23:13 -33.59556 -59.81641 6061 ft 195 kts 299°
2026-04-26 23:13 -33.58673 -59.82890 6060 ft 195 kts 299°
2026-04-26 23:14 -33.57806 -59.84117 6060 ft 195 kts 299°
2026-04-26 23:14 -33.56924 -59.85366 6064 ft 195 kts 299°
2026-04-26 23:14 -33.56043 -59.86612 6068 ft 195 kts 299°
2026-04-26 23:14 -33.55156 -59.87865 6067 ft 196 kts 299°
2026-04-26 23:15 -33.54268 -59.89120 6073 ft 196 kts 299°
2026-04-26 23:15 -33.53378 -59.90376 6076 ft 196 kts 299°
2026-04-26 23:15 -33.52493 -59.91626 6075 ft 196 kts 299°
2026-04-26 23:15 -33.51613 -59.92868 6073 ft 196 kts 299°
2026-04-26 23:16 -33.50721 -59.94126 6073 ft 196 kts 299°
2026-04-26 23:16 -33.49843 -59.95364 6074 ft 196 kts 299°
2026-04-26 23:16 -33.49162 -59.96325 6075 ft 197 kts 299°
2026-04-26 23:16 -33.48282 -59.97565 6078 ft 196 kts 299°
2026-04-26 23:17 -33.47391 -59.98821 6079 ft 197 kts 300°
2026-04-26 23:17 -33.46501 -60.00075 6078 ft 197 kts 300°
2026-04-26 23:17 -33.45609 -60.01329 6080 ft 197 kts 299°
2026-04-26 23:17 -33.44724 -60.02575 6080 ft 197 kts 300°
2026-04-26 23:18 -33.43838 -60.03822 6076 ft 197 kts 299°
2026-04-26 23:18 -33.42939 -60.05086 6077 ft 197 kts 300°
2026-04-26 23:18 -33.42047 -60.06340 6081 ft 197 kts 300°
2026-04-26 23:18 -33.41156 -60.07592 6082 ft 197 kts 299°
2026-04-26 23:19 -33.40272 -60.08836 6084 ft 197 kts 299°
2026-04-26 23:19 -33.39383 -60.10083 6084 ft 197 kts 299°
2026-04-26 23:19 -33.38494 -60.11332 6084 ft 197 kts 300°
2026-04-26 23:19 -33.37595 -60.12595 6080 ft 197 kts 300°
2026-04-26 23:20 -33.36705 -60.13844 6081 ft 197 kts 300°
2026-04-26 23:20 -33.35810 -60.15098 6082 ft 197 kts 299°
2026-04-26 23:20 -33.34927 -60.16337 6084 ft 197 kts 299°
2026-04-26 23:20 -33.34035 -60.17588 6082 ft 198 kts 299°
2026-04-26 23:21 -33.33135 -60.18848 6083 ft 198 kts 300°
2026-04-26 23:21 -33.32238 -60.20105 6085 ft 198 kts 300°
2026-04-26 23:21 -33.31348 -60.21351 6085 ft 198 kts 299°
2026-04-26 23:21 -33.30453 -60.22604 6087 ft 198 kts 299°
2026-04-26 23:22 -33.29548 -60.23869 6090 ft 198 kts 299°
2026-04-26 23:22 -33.28654 -60.25120 6091 ft 198 kts 299°
2026-04-26 23:22 -33.27759 -60.26372 6091 ft 198 kts 299°
2026-04-26 23:22 -33.26862 -60.27626 6091 ft 198 kts 300°
2026-04-26 23:23 -33.25964 -60.28880 6091 ft 198 kts 299°
2026-04-26 23:23 -33.25065 -60.30136 6092 ft 198 kts 299°
2026-04-26 23:23 -33.24169 -60.31387 6091 ft 198 kts 299°
2026-04-26 23:23 -33.23275 -60.32635 6090 ft 198 kts 299°
2026-04-26 23:24 -33.22372 -60.33898 6091 ft 198 kts 299°
2026-04-26 23:24 -33.21488 -60.35139 6096 ft 197 kts 299°
2026-04-26 23:24 -33.20591 -60.36399 6096 ft 198 kts 298°
2026-04-26 23:24 -33.19700 -60.37647 6096 ft 198 kts 299°
2026-04-26 23:25 -33.18795 -60.38913 6097 ft 198 kts 299°
2026-04-26 23:25 -33.17898 -60.40167 6095 ft 199 kts 299°
2026-04-26 23:25 -33.17003 -60.41417 6076 ft 200 kts 299°
2026-04-26 23:25 -33.16089 -60.42695 5948 ft 203 kts 300°
2026-04-26 23:26 -33.15168 -60.43977 5815 ft 200 kts 300°
2026-04-26 23:26 -33.14271 -60.45227 5680 ft 198 kts 300°
2026-04-26 23:26 -33.13378 -60.46474 5543 ft 197 kts 299°
2026-04-26 23:26 -33.12494 -60.47707 5406 ft 196 kts 299°
2026-04-26 23:27 -33.11604 -60.48946 5268 ft 195 kts 299°
2026-04-26 23:27 -33.10711 -60.50191 5127 ft 195 kts 299°
2026-04-26 23:27 -33.09826 -60.51424 4989 ft 195 kts 299°
2026-04-26 23:27 -33.09244 -60.52236 4898 ft 195 kts 299°
2026-04-26 23:28 -33.08060 -60.53883 4722 ft 195 kts 300°
2026-04-26 23:28 -33.07180 -60.55109 4585 ft 195 kts 300°
2026-04-26 23:28 -33.06306 -60.56324 4449 ft 195 kts 300°
2026-04-26 23:28 -33.05410 -60.57569 4309 ft 195 kts 300°
2026-04-26 23:29 -33.04534 -60.58788 4173 ft 196 kts 300°
2026-04-26 23:29 -33.03639 -60.60030 4039 ft 196 kts 300°
2026-04-26 23:29 -33.02729 -60.61296 3907 ft 196 kts 300°
2026-04-26 23:29 -33.01794 -60.62593 3769 ft 196 kts 300°
2026-04-26 23:30 -33.00905 -60.63828 3637 ft 196 kts 300°
2026-04-26 23:30 -33.00018 -60.65058 3507 ft 196 kts 301°
2026-04-26 23:30 -32.99113 -60.66313 3385 ft 196 kts 301°
2026-04-26 23:30 -32.98213 -60.67561 3266 ft 195 kts 301°
2026-04-26 23:31 -32.97322 -60.68796 3146 ft 195 kts 301°
2026-04-26 23:31 -32.96434 -60.70027 3025 ft 193 kts 301°
2026-04-26 23:31 -32.95556 -60.71242 2891 ft 191 kts 301°
2026-04-26 23:31 -32.94693 -60.72458 2754 ft 190 kts 300°
2026-04-26 23:32 -32.93848 -60.73657 2618 ft 189 kts 301°
2026-04-26 23:32 -32.93005 -60.74852 2484 ft 188 kts 300°
2026-04-26 23:32 -32.92160 -60.76049 2348 ft 188 kts 301°
2026-04-26 23:32 -32.91321 -60.77239 2214 ft 187 kts 301°
2026-04-26 23:33 -32.90522 -60.78447 2064 ft 180 kts 289°
2026-04-26 23:33 -32.90048 -60.79803 1924 ft 175 kts 281°
2026-04-26 23:33 -32.89652 -60.81083 1934 ft 167 kts 280°
2026-04-26 23:33 -32.89250 -60.82380 1826 ft 163 kts 280°
2026-04-26 23:34 -32.88866 -60.83613 1692 ft 159 kts 281°
2026-04-26 23:34 -32.88482 -60.84852 1551 ft 157 kts 281°
2026-04-26 23:34 -32.88079 -60.86040 1491 ft 157 kts 294°
2026-04-26 23:34 -32.87153 -60.86785 1502 ft 168 kts 340°
2026-04-26 23:35 -32.85986 -60.86706 1506 ft 170 kts
2026-04-26 23:35 -32.84824 -60.86382 1497 ft 168 kts 11°
2026-04-26 23:35 -32.83696 -60.86067 1500 ft 166 kts 10°
2026-04-26 23:35 -32.82569 -60.85756 1497 ft 164 kts
2026-04-26 23:36 -32.81479 -60.85402 1501 ft 164 kts 26°
2026-04-26 23:36 -32.80695 -60.84481 1512 ft 155 kts 72°
2026-04-26 23:36 -32.80512 -60.83284 1476 ft 144 kts 99°
2026-04-26 23:36 -32.80508 -60.82120 1374 ft 138 kts 101°
2026-04-26 23:37 -32.80519 -60.80983 1271 ft 138 kts 101°
2026-04-26 23:37 -32.80537 -60.79843 1170 ft 138 kts 101°
2026-04-26 23:37 -32.80565 -60.78693 1065 ft 138 kts 101°
2026-04-26 23:37 -32.80823 -60.77668 985 ft 124 kts 128°
2026-04-26 23:38 -32.81238 -60.76796 1004 ft 122 kts 130°
2026-04-26 23:38 -32.81805 -60.76165 1006 ft 105 kts 171°
2026-04-26 23:38 -32.82478 -60.76266 1011 ft 96 kts 212°
2026-04-26 23:38 -32.83052 -60.76698 1006 ft 98 kts 214°
2026-04-26 23:39 -32.83701 -60.76962 1003 ft 99 kts 196°
2026-04-26 23:39 -32.84380 -60.77120 1007 ft 99 kts 195°
2026-04-26 23:39 -32.85060 -60.77274 892 ft 96 kts 195°
2026-04-26 23:39 -32.85708 -60.77419 774 ft 92 kts 196°
2026-04-26 23:40 -32.86332 -60.77559 660 ft 91 kts 196°
2026-04-26 23:40 -32.86960 -60.77702 535 ft 90 kts 196°
2026-04-26 23:40 -32.87581 -60.77842 418 ft 91 kts 196°
2026-04-26 23:40 -32.88205 -60.77983 296 ft 92 kts 197°
2026-04-26 23:41 -32.88853 -60.78131 167 ft 95 kts 196°
2026-04-26 23:41 -32.89485 -60.78273 90 ft 89 kts 197°
2026-04-26 23:41 -32.90023 -60.78404 87 ft 65 kts 189°
2026-04-26 23:41 -32.90408 -60.78476 87 ft 48 kts 191°
2026-04-26 23:42 -32.90695 -60.78539 87 ft 36 kts 191°
2026-04-26 23:42 -32.91124 -60.78635 87 ft 27 kts 190°
2026-04-26 23:42 -32.91299 -60.78677 87 ft 24 kts 194°
2026-04-26 23:43 -32.91457 -60.78713 87 ft 22 kts 190°
2026-04-26 23:43 -32.91603 -60.78743 87 ft 19 kts 184°
2026-04-26 23:43 -32.91695 -60.78706 87 ft 11 kts 140°
2026-04-26 23:43 -32.91748 -60.78641 87 ft 11 kts 133°
2026-04-26 23:44 -32.91792 -60.78554 87 ft 13 kts 92°
2026-04-26 23:44 -32.91767 -60.78420 87 ft 18 kts 75°
2026-04-26 23:44 -32.91738 -60.78267 87 ft 9 kts 101°
2026-04-26 23:44 -32.91801 -60.78245 87 ft 10 kts 204°
2026-04-26 23:45 -32.91829 -60.78226 87 ft 4 kts 32°
2026-04-26 23:45 -32.91817 -60.78220 87 ft 0 kts 21°
2026-04-26 23:45 -32.91816 -60.78220 87 ft 0 kts 21°